Dewpoint
32 36 55 61 63 63 64 65 66 66 66 66 67 67 67 67 67 67 67 67 67 69 69 70 70 70 70 70 69 69 69 69 69 70 70 71 71 70 70 70 71 70 70
29 39 53 60 61 62 63 64 64 65 65 65 65 67 67 66 66 66 66 67 67 66 68 68 69 69 68 69 69 68 69 69 69 70 69 70 71 71 71 71 71 70 71
25 39 45 59 60 60 61 62 62 63 64 64 65 65 65 66 66 66 66 67 67 66 65 66 67 67 67 67 68 68 69 69 70 70 69 67 67 71 70 71 71 70 70
23 36 47 57 58 59 59 60 60 61 61 62 63 63 64 63 64 65 65 65 66 66 66 65 65 64 65 66 66 67 69 69 69 69 65 67 67 70 69 70 69 69 70
19 28 46 54 56 57 57 58 58 58 59 59 61 61 61 62 62 62 63 63 63 63 64 64 64 64 64 64 66 66 68 67 68 65 65 67 68 68 69 69 69 68 70
17 19 41 51 54 54 54 55 56 55 55 56 56 57 58 58 59 59 59 60 60 59 60 62 63 62 63 63 64 65 66 66 66 66 65 67 68 69 69 69 70 70 69
17 18 25 45 49 51 51 51 51 52 52 51 52 52 53 55 55 56 56 56 56 57 57 58 59 59 59 60 61 62 63 64 63 63 63 64 66 69 69 69 69 69 69
15 18 20 29 36 45 47 47 47 47 47 47 46 46 47 48 50 51 52 52 52 53 53 54 54 55 55 56 57 58 59 62 63 61 60 61 67 68 69 68 69 69 69
15 16 18 19 23 30 39 40 41 41 41 40 41 40 39 41 42 45 45 47 48 48 49 49 49 49 49 50 51 52 58 60 60 57 56 60 67 68 68 68 68 68 68
17 17 16 17 19 16 20 33 35 35 36 36 36 36 34 33 37 39 41 43 44 44 44 45 45 45 44 45 45 49 54 55 56 52 56 61 66 67 67 68 68 68 68
19 18 19 18 17 17 15 21 26 31 31 31 29 32 26 24 28 31 36 39 40 41 41 41 41 40 39 38 41 46 46 40 46 50 57 63 65 67 67 67 67 67 67
18 18 19 19 18 18 16 19 19 18 21 19 17 18 21 20 24 26 31 35 37 37 36 37 37 36 32 26 27 33 29 33 39 51 54 60 63 65 65 66 66 66 66
19 21 20 18 19 18 18 18 18 18 19 19 17 17 21 20 20 22 26 28 29 30 26 26 24 23 22 25 26 25 29 36 42 51 51 55 56 60 61 63 64 63 63
20 20 19 18 17 17 20 17 17 17 17 18 18 17 17 18 18 17 19 24 27 26 24 25 25 22 22 22 22 26 32 36 39 44 46 48 50 53 57 61 58 60 61
18 19 18 17 16 16 16 18 16 16 16 17 18 17 18 18 17 18 18 21 24 25 24 25 23 23 23 23 24 29 26 30 30 31 39 41 44 47 52 55 54 58 60
17 17 18 17 16 15 14 12 13 12 16 16 16 17 19 20 18 20 19 20 21 24 25 25 24 24 24 24 26 30 25 27 24 30 28 31 39 41 46 48 50 53 56
17 17 16 16 15 12 12 10 10 11 13 14 14 15 16 19 19 18 20 20 21 23 24 25 25 26 26 24 25 30 25 24 22 26 25 27 31 35 40 43 46 48 51
17 15 13 11 15 12 10 10 8 10 10 11 13 14 15 16 18 18 19 20 20 22 23 24 25 24 24 26 24 31 25 26 21 25 23 25 27 27 32 39 41 44 47
15 14 13 12 13 12 9 11 9 7 7 9 11 11 13 14 17 19 19 21 20 22 22 23 24 24 23 24 23 31 25 27 25 23 21 24 26 26 26 33 36 38 40
12 13 12 11 10 10 10 7 8 8 7 7 7 9 10 12 13 17 18 19 21 21 20 21 22 24 24 24 23 30 28 27 27 26 24 23 25 25 25 25 28 29 36
12 10 11 10 9 12 11 8 7 5 6 6 5 7 7 9 11 13 17 17 18 19 19 20 23 24 23 24 26 27 36 25 24 24 25 24 24 24 23 26 26 27 27
11 10 8 8 7 11 13 10 10 5 5 6 7 6 7 7 10 7 12 15 16 18 18 19 21 24 24 24 23 24 21 29 24 22 24 20 22 24 22 25 24 24 26
12 11 10 9 10 13 19 13 9 6 4 3 4 5 6 8 10 11 10 12 14 16 17 17 19 22 24 23 23 23 19 18 21 22 22 21 22 22 22 26 24 24 25
15 18 16 15 14 17 16 19 17 19 8 6 3 3 6 7 8 10 11 11 12 14 13 16 18 20 23 21 23 22 24 22 18 18 21 22 22 21 21 25 25 25 25
20 19 19 18 18 17 17 18 18 18 19 14 7 1 3 7 8 9 11 10 11 13 14 14 17 19 21 21 22 22 21 23 20 22 18 19 21 21 22 25 24 24 26
22 20 19 18 17 15 14 14 14 10 12 15 14 7 6 5 11 12 14 14 12 12 15 16 17 19 20 21 21 21 21 20 20 20 19 19 19 20 21 22 23 24 25
Lifted_Index
6 6 6 6 6 6 6 5 5 5 5 4 4 4 4 4 4 4 4 4 3 3 2 2 2 2 2 2 2 2 2 1 1 1 1 1 0 0 0 0 0 -0 -0
7 7 7 7 6 6 6 6 5 5 5 5 4 4 4 4 4 4 4 4 4 4 3 3 3 3 3 3 2 2 2 1 1 1 1 1 0 0 0 0 0 -0 -0
8 7 7 7 6 6 6 6 6 6 6 6 5 5 5 5 5 5 5 5 5 5 5 4 4 4 4 4 3 3 2 2 2 2 1 1 1 0 0 0 0 0 -0
8 8 7 7 6 6 6 6 6 6 7 6 6 6 6 6 6 6 6 6 5 5 5 5 6 6 5 5 4 3 3 2 2 2 1 1 1 0 0 0 0 0 -0
9 8 7 7 6 6 6 6 6 6 7 7 7 7 6 6 7 7 7 7 6 6 6 6 6 6 6 6 5 4 3 3 2 2 2 1 1 0 0 0 0 0 -0
10 9 8 7 6 5 5 5 6 6 7 7 7 7 7 7 7 7 7 7 7 6 6 6 6 6 6 6 6 5 4 3 3 2 2 2 1 0 0 0 0 0 0
10 11 11 9 8 7 6 6 6 7 7 8 8 8 8 8 8 8 8 8 8 7 7 6 6 5 6 6 6 5 4 3 3 3 3 2 1 0 0 -0 0 0 0
11 12 13 12 12 11 10 9 9 10 10 10 10 10 11 11 11 11 10 10 9 8 8 7 7 6 5 5 5 5 5 4 4 3 3 2 1 1 0 0 -0 -0 -0
13 13 14 14 14 14 14 14 14 14 14 14 14 14 14 14 14 14 14 13 12 11 10 8 8 7 6 5 5 5 5 5 4 4 3 3 2 1 0 0 -0 -0 -0
13 14 15 15 15 16 16 17 18 18 18 18 18 18 18 18 18 18 17 17 16 14 13 11 9 8 7 6 6 5 5 5 5 5 4 3 2 1 1 0 0 0 -0
11 13 15 16 16 17 18 19 19 20 20 20 20 20 20 20 20 20 20 19 19 18 17 15 13 11 9 8 7 6 6 6 6 6 5 4 3 2 1 1 1 1 0
10 12 15 16 17 18 19 19 20 21 21 21 21 21 21 21 21 21 21 21 20 20 19 19 17 15 13 11 10 8 8 8 8 7 6 5 4 3 3 2 2 1 1
9 11 15 17 18 18 19 20 20 21 21 21 21 21 21 21 21 21 21 21 21 20 20 20 19 19 17 16 14 13 11 11 10 9 7 6 5 4 4 3 3 2 2
10 12 16 18 19 19 20 20 21 21 21 21 21 21 21 20 20 20 20 20 20 20 20 20 20 20 19 19 18 17 16 14 13 11 10 8 7 6 5 5 4 4 3
11 13 17 19 19 20 21 21 21 21 21 21 21 21 21 21 20 20 20 20 21 21 20 20 20 20 20 20 20 20 19 18 16 14 13 11 10 9 8 7 6 5 5
13 15 17 19 20 21 21 21 22 22 22 22 22 22 22 21 21 21 21 21 21 21 21 21 20 20 20 20 20 20 20 20 19 18 17 16 15 14 12 11 9 8 8
14 15 17 19 20 21 21 22 22 22 22 22 22 23 22 22 22 21 21 21 21 21 21 21 21 20 20 20 20 20 21 21 21 21 21 20 20 19 17 16 14 13 12
15 16 17 19 20 21 21 22 22 23 23 23 23 23 23 23 22 22 22 22 22 22 22 21 21 20 20 20 20 20 21 22 22 22 22 22 22 22 21 20 19 18 17
15 16 17 19 20 21 22 22 22 23 23 23 23 23 23 23 23 22 22 22 22 22 22 21 21 20 20 20 20 20 21 22 22 23 23 23 23 23 23 23 22 21 21
16 17 18 19 21 21 22 22 22 22 22 23 23 23 23 23 23 23 22 22 22 22 22 21 21 21 20 20 20 20 20 21 22 23 23 23 23 24 24 24 24 23 23
17 18 19 20 21 21 22 22 21 22 22 23 23 23 23 23 23 23 22 22 22 22 22 21 21 21 20 20 20 19 19 20 22 23 23 23 24 24 24 24 24 24 24
17 17 19 20 21 21 22 22 22 22 22 22 22 23 23 23 23 23 22 22 22 22 22 21 21 21 20 20 20 19 18 19 21 22 23 23 24 24 24 24 25 25 25
17 18 19 20 21 22 22 22 22 22 21 21 21 22 22 23 23 23 22 22 22 22 22 22 21 21 21 21 20 20 19 18 19 21 22 23 23 24 24 24 25 25 25
17 18 19 20 22 22 23 23 22 22 21 21 21 21 22 22 22 22 22 22 22 22 22 22 22 22 21 21 21 21 21 20 20 19 20 22 23 23 24 24 24 25 25
17 18 19 20 21 22 23 23 22 22 22 22 22 21 22 22 22 22 22 22 22 22 22 22 22 22 21 21 21 21 22 21 21 20 19 20 22 23 24 24 25 25 25
17 17 18 19 20 21 22 23 22 22 22 22 22 22 21 22 22 22 22 22 22 22 22 22 22 21 21 22 22 22 22 21 21 20 20 20 21 22 24 24 25 25 25